Regional Weather Roundup
Issued by NWS

Home | Current Version | Previous Version | Text Only | Print | Product List | Glossary Off
Versions: 1 2 3 4 5 6 7 8 9 10 11 12 13 14 15 16 17 18 19 20 21 22 23 24 25 26 27 28 29 30 31 32 33 34 35 36 37 38 39 40 41 42 43 44 45 46 47 48 49 50

000
ASUS45 KSLC 231810
RWRUT

UTAH REGIONAL WEATHER ROUNDUP
NATIONAL WEATHER SERVICE SALT LAKE CITY UT
1200 PM MDT MON MAY 23 2016

UTZ001>011-023>025-231900-

NORTHERN UTAH

CITY           SKY/WX    TMP DP  RH WIND       PRES   REMARKS
BRIGHAM CITY     N/A     59  29  32 CALM      29.94S
DUGWAY         MOSUNNY   67  31  26 VRB3      29.92F
HILL AFB       MOSUNNY   59  36  42 VRB3      29.93F
LOGAN          MOSUNNY   54  42  64 E5        29.94F
OGDEN          MOSUNNY   60  35  39 VRB3      29.92F
PROVO AIRPORT  MOSUNNY   57  36  44 VRB5      29.93S
SALT LAKE CITY MOSUNNY   62  35  36 VRB7      29.92F
VERNAL         PTSUNNY   58  29  33 VRB3      29.95F
WENDOVER       MOSUNNY   59  32  36 SE8       29.93S
HEBER CITY     MOSUNNY   59  28  31 CALM      29.91F
WEST JORDAN    MOSUNNY   57  34  41 CALM      29.94S

$$

UTZ012>022-026-027-231900-

SOUTHERN/CENTRAL UTAH

CITY           SKY/WX    TMP DP  RH WIND       PRES   REMARKS
BLANDING       SUNNY     63  20  19 S5        30.04R
BRYCE CANYON   SUNNY     56  17  21 MISG      30.00S
CEDAR CITY     SUNNY     64  18  17 VRB7G25   29.91F
DELTA          SUNNY     61  30  31 S9        29.91F
HANKSVILLE     SUNNY     68  21  17 E6        29.90F
MILFORD        SUNNY     63  26  24 S7        29.91F
MOAB/CYNLANDS  SUNNY     68  22  17 VRB3      29.87F
PRICE          MOSUNNY   61  19  19 SE7       29.93S
ST GEORGE      PTCLDY    72  25  17 N6        29.87F

$$

REGIONAL REPORTS     COLORADO/ARIZONA

CITY           SKY/WX    TMP DP  RH WIND       PRES   REMARKS
CRAIG, CO      SUNNY     60  26  27 NW7       29.95F
GRAND JUNCTION SUNNY     63  23  21 SW3       29.89F
RIFLE          MOSUNNY   62  26  25 N3        29.92F
MONTROSE       SUNNY     66  27  23 NW9       29.94F
CORTEZ         SUNNY     65  22  19 SW10G20   29.98S
PAGE, AZ       SUNNY     70  17  13 N9        29.89F
GRAND CANYON   SUNNY     61  16  17 SW10G17   30.01F
KINGMAN        SUNNY     73  24  16 SW15G26   29.89S
FLAGSTAFF      SUNNY     58  19  22 SW16G22   30.04S

$$

REGIONAL REPORTS    NEVADA/IDAHO/WYOMING

CITY           SKY/WX    TMP DP  RH WIND       PRES   REMARKS
LAS VEGAS, NV  SUNNY     76  28  17 S13G20    29.78F
ELY            MOSUNNY   55  25  31 CALM      29.92F
ELKO           SUNNY     60  30  32 VRB3      29.90F
POCATELLO, ID  MOSUNNY   58  36  43 W10G20    29.93F
BURLEY         SUNNY     59  36  42 W6        29.90F
EVANSTON, WY   CLOUDY    51  29  42 W10       29.98S
ROCK SPRINGS   MOSUNNY   51  25  36 SW12G17   29.98S
KEMMERER         N/A     50  28  43 W10G21    29.99R

$$



USA.gov is the U.S. government's official web portal to all federal, state and local government web resources and services.